Weather History for Reggio Calabria, Italy

Change the Weather History Date:

Wednesday, October 10, 2012

  Actual Average Record
Temperature  
Mean Temperature 76 °F -  
Max Temperature 80 °F 71 °F 87 °F (2001)
Min Temperature 71 °F 60 °F 59 °F (2003)
Cooling Degree Days 10    
Growing Degree Days 26 (Base 50)    
Moisture  
Dew Point 64 °F    
Average Humidity 67    
Maximum Humidity 78    
Minimum Humidity 58    
Precipitation  
Precipitation 0.00 in - - ()
Sea Level Pressure  
Sea Level Pressure 29.83 in    
Wind  
Wind Speed 8 mph ()    
Max Wind Speed 16 mph    
Max Gust Speed -    
Visibility 6.2 miles    
Events      
Averages and records for this station are not official NWS values.
T = Trace of Precipitation, MM = Missing Value Source: Averaged Metar Reports

Daily Weather History Graph

Daily Weather History Graph

Search for Another Location

Airport:

Trip Planner

Search our weather history database for the weather conditions in past years. The results will help you decide how hot, cold, wet, or windy it might be!

Date:

Astronomy

Oct. 10, 2012 Rise Set
Actual Time 7:01 AM CEST 6:26 PM CEST
Civil Twilight 6:35 AM CEST 6:52 PM CEST
Nautical Twilight 6:04 AM CEST 7:23 PM CEST
Astronomical Twilight 5:33 AM CEST 7:53 PM CEST
Moon 1:24 AM CEST (10/10) 3:14 PM CEST (10/10)
Length of Visible Light 12h 17m
Length of Day
11h 25m
Waning Crescent, 30% of the Moon is Illuminated
Oct 10
Waning Crescent
Oct 15
New
Oct 22
First Quarter
Oct 29
Full
Nov 7
Last Quarter

Hourly Weather History & Observations

Time (CEST) Temp. Heat Index Dew Point Humidity Pressure Visibility Wind Dir Wind Speed Gust Speed Precip Events Conditions
5:50 AM 73.4 °F - 64.4 °F 73% 29.80 in 6.2 mi NNE 6.9 mph - N/A   Scattered Clouds
6:50 AM 71.6 °F - 62.6 °F 73% 29.80 in 6.2 mi North 5.8 mph - N/A   Scattered Clouds
7:50 AM 73.4 °F - 66.2 °F 78% 29.80 in 6.2 mi Variable 2.3 mph - N/A   Scattered Clouds
8:50 AM 75.2 °F - 66.2 °F 73% 29.83 in 6.2 mi Variable 2.3 mph - N/A   Scattered Clouds
9:50 AM 78.8 °F - 64.4 °F 61% 29.83 in 6.2 mi Variable 4.6 mph - N/A   Scattered Clouds
10:05 AM 78.8 °F - 64.4 °F 61% 29.83 in 6.2 mi North 8.1 mph - N/A   Mostly Cloudy
10:50 AM 78.8 °F - 66.2 °F 65% 29.83 in 6.2 mi North 11.5 mph - N/A   Scattered Clouds
11:50 AM 80.6 °F 82.3 °F 64.4 °F 58% 29.83 in 6.2 mi North 15.0 mph - N/A   Scattered Clouds
12:50 PM 80.6 °F 82.3 °F 64.4 °F 58% 29.83 in 6.2 mi North 16.1 mph - N/A   Partly Cloudy
1:50 PM 78.8 °F - 64.4 °F 61% 29.83 in 6.2 mi North 13.8 mph - N/A   Scattered Clouds
2:50 PM 78.8 °F - 64.4 °F 61% 29.83 in 6.2 mi North 13.8 mph - N/A   Scattered Clouds
3:50 PM 78.8 °F - 64.4 °F 61% 29.80 in 6.2 mi North 15.0 mph - N/A   Scattered Clouds
4:50 PM 77.0 °F - 64.4 °F 65% 29.80 in 6.2 mi North 16.1 mph - N/A   Scattered Clouds
5:50 PM 75.2 °F - 64.4 °F 69% 29.80 in 6.2 mi North 15.0 mph - N/A   Scattered Clouds
6:50 PM 75.2 °F - 64.4 °F 69% 29.83 in 6.2 mi North 11.5 mph - N/A   Scattered Clouds
7:50 PM 75.2 °F - 64.4 °F 69% 29.83 in 6.2 mi North 10.4 mph - N/A   Scattered Clouds
8:50 PM 73.4 °F - 64.4 °F 73% 29.86 in 6.2 mi North 9.2 mph - N/A   Scattered Clouds
9:50 PM 73.4 °F - 64.4 °F 73% 29.86 in 6.2 mi NNE 10.4 mph - N/A   Scattered Clouds
10:50 PM 73.4 °F - 64.4 °F 73% 29.86 in 6.2 mi NNE 10.4 mph - N/A   Scattered Clouds
11:50 PM 73.4 °F - 62.6 °F 69% 29.86 in 6.2 mi NE 8.1 mph - N/A   Scattered Clouds